This is the latest recevied weather packets stored in our database for station/object KC5DP. If no packets are shown the sender has not sent any weather packets the latest 1 day(s).
| Time | Temp. | Humidity | Pressure | Rain* | Wind** | Luminosity | Snow |
|---|---|---|---|---|---|---|---|
| 1778071976 | 23.89° C | 94% | 1011.7 hPa | 0 mm | - | 30 W/m² | - |
| 1778071069 | 23.89° C | 94% | 1011.6 hPa | 0 mm | - | 38 W/m² | - |
| 1778070464 | 23.33° C | 94% | 1011.3 hPa | 0 mm | - | 38 W/m² | - |
| 1778070161 | 23.33° C | 95% | 1011.3 hPa | 0 mm | - | 51 W/m² | - |
| 1778069253 | 23.33° C | 95% | 1011.3 hPa | 0 mm | - | 19 W/m² | - |
| 1778068951 | 23.33° C | 95% | 1011.3 hPa | 0 mm | - | 19 W/m² | - |
| 1778068044 | 22.78° C | 95% | 1011.1 hPa | 0 mm | - | 5 W/m² | - |
| 1778067440 | 22.78° C | 95% | 1011 hPa | 0 mm | - | 4 W/m² | - |
| 1778067137 | 22.78° C | 95% | 1011.1 hPa | 0 mm | - | 3 W/m² | - |
| 1778066833 | 22.78° C | 95% | 1010.9 hPa | 0 mm | - | 3 W/m² | - |
| 1778066531 | 22.78° C | 95% | 1010.8 hPa | 0 mm | - | 1 W/m² | - |
| 1778066228 | 22.78° C | 95% | 1011 hPa | 0 mm | - | 1 W/m² | - |
| 1778065926 | 22.78° C | 95% | 1010.6 hPa | 0 mm | - | 1 W/m² | - |
| 1778065623 | 22.78° C | 95% | 1010.8 hPa | 0 mm | - | 0 W/m² | - |
| 1778065017 | 22.78° C | 95% | 1010.8 hPa | 0 mm | - | 0 W/m² | - |
| 1778064412 | 22.78° C | 95% | 1010.6 hPa | 0 mm | - | 0 W/m² | - |
| 1778063806 | 22.78° C | 95% | 1010.5 hPa | 0 mm | - | 0 W/m² | - |
| 1778063503 | 22.78° C | 95% | 1010.6 hPa | 0 mm | - | 0 W/m² | - |
| 1778063201 | 22.78° C | 95% | 1010.6 hPa | 0 mm | - | 0 W/m² | - |
| 1778062595 | 22.78° C | 95% | 1010.4 hPa | 0 mm | - | 0 W/m² | - |
| 1778061688 | 22.22° C | 95% | 1010.5 hPa | 0 mm | - | 0 W/m² | - |
| 1778060780 | 22.78° C | 95% | 1010.5 hPa | 0 mm | - | 0 W/m² | - |
| 1778060176 | 22.78° C | 94% | 1010.5 hPa | 0 mm | - | 0 W/m² | - |
| 1778059268 | 22.78° C | 94% | 1010.3 hPa | 0 mm | - | 0 W/m² | - |
| 1778058966 | 22.78° C | 94% | 1010.4 hPa | 0 mm | - | 0 W/m² | - |
* Rain latest hour (hover to see other rain measurements)
** Current wind speed in m/s (hover to see current wind gust speed)